Tracking 28799 objects as of 17-Apr-2024
HD Live streaming from Space Station
objects crossing your sky now

THOR ABLESTAR DEB

Track THOR ABLESTAR DEB now!
10-day predictions


NORAD ID: 475
Int'l Code: 1961-015FM
Perigee: 734.9 km
Apogee: 958.7 km
Inclination: 66.2 °
Period: 101.7 minutes
Semi major axis: 7217 km
RCS: 0.0538 m2 (small)
Launch date: June 29, 1961
Source: United States (US)
Launch site: AIR FORCE EASTERN TEST RANGE (AFETR)

Note: This is SATELLITE DEBRIS
Your satellite tracking list
Your tracking list is empty




NASA's NSSDC Master Catalog

Two Line Element Set (TLE):
1   475U 61015FM  24107.91845939  .00006491  00000-0  29724-2 0  9997
2   475  66.2248 295.9408 0155040 231.8779 126.8248 14.15783592175802
Source of the keplerian elements: AFSPC